Wetterdaten: Woche 28.12.15 - 03.01.16 (KW53)
Datum Zeit Temp. Aussen Temp. o. S. +5cm Feuchte Auss BlattFeu 1 Luftdruck Regen Sonnenschein Regendauer Solar Windben Empfang
28.12.2015 00:00 8,1 C 7,6 C 6,0 C 87 % 0 lf 1028,7 hPa 0,0 l/m 0,00 h 0,00 h 2 W/m 7,1 km/h (2 Bft) 97,16 %
28.12.2015 01:00 7,3 C 6,9 C 5,3 C 90 % 0 lf 1028,6 hPa 0,0 l/m 0,00 h 0,00 h 7 W/m 7,4 km/h (2 Bft) 95,66 %
28.12.2015 02:00 6,5 C 6,1 C 4,6 C 91 % 0 lf 1028,4 hPa 0,0 l/m 0,00 h 0,00 h 0 W/m 7,6 km/h (2 Bft) 96,01 %
28.12.2015 03:00 6,0 C 6,0 C 4,4 C 93 % 0 lf 1028,1 hPa 0,0 l/m 0,00 h 0,00 h 0 W/m 9,4 km/h (2 Bft) 95,23 %
28.12.2015 04:00 5,8 C 5,8 C 4,4 C 94 % 0 lf 1028,0 hPa 0,0 l/m 0,00 h 0,00 h 0 W/m 8,7 km/h (2 Bft) 95,86 %
28.12.2015 05:00 5,8 C 6,1 C 4,4 C 95 % 1 lf 1027,7 hPa 0,0 l/m 0,00 h 0,00 h 0 W/m 12,2 km/h (2 Bft) 97,36 %
28.12.2015 06:00 5,8 C 5,7 C 4,3 C 95 % 1 lf 1027,5 hPa 0,0 l/m 0,00 h 0,00 h 0 W/m 9,8 km/h (2 Bft) 95,14 %
28.12.2015 07:00 5,5 C 5,6 C 3,9 C 95 % 2 lf 1027,1 hPa 0,0 l/m 0,00 h 0,00 h 0 W/m 9,5 km/h (2 Bft) 93,81 %
28.12.2015 08:00 5,3 C 5,4 C 4,0 C 96 % 3 lf 1027,3 hPa 0,0 l/m 0,00 h 0,00 h 5 W/m 12,4 km/h (3 Bft) 97,94 %
28.12.2015 09:00 5,6 C 6,4 C 4,8 C 96 % 2 lf 1027,1 hPa 0,0 l/m 0,77 h 0,00 h 53 W/m 15,9 km/h (3 Bft) 95,57 %
28.12.2015 10:00 6,8 C 8,6 C 6,5 C 96 % 0 lf 1026,8 hPa 0,0 l/m 1,00 h 0,00 h 129 W/m 18,0 km/h (3 Bft) 95,16 %
28.12.2015 11:00 9,0 C 13,5 C 7,9 C 88 % 0 lf 1026,2 hPa 0,0 l/m 1,00 h 0,00 h 198 W/m 19,4 km/h (3 Bft) 96,79 %
28.12.2015 12:00 10,8 C 14,0 C 9,5 C 79 % 0 lf 1025,4 hPa 0,0 l/m 0,97 h 0,00 h 242 W/m 26,3 km/h (4 Bft) 95,96 %
28.12.2015 13:00 11,7 C 14,3 C 10,3 C 76 % 0 lf 1024,6 hPa 0,0 l/m 1,00 h 0,00 h 198 W/m 25,5 km/h (4 Bft) 95,02 %
28.12.2015 14:00 12,1 C 13,6 C 10,6 C 74 % 0 lf 1023,8 hPa 0,0 l/m 1,00 h 0,00 h 141 W/m 28,0 km/h (4 Bft) 95,44 %
28.12.2015 15:00 11,6 C 11,9 C 9,8 C 74 % 0 lf 1023,3 hPa 0,0 l/m 0,60 h 0,00 h 61 W/m 26,1 km/h (4 Bft) 97,23 %
28.12.2015 16:00 10,7 C 10,5 C 8,7 C 75 % 0 lf 1022,9 hPa 0,0 l/m 0,20 h 0,00 h 14 W/m 24,0 km/h (4 Bft) 94,80 %
28.12.2015 17:00 9,9 C 9,8 C 8,1 C 76 % 0 lf 1022,9 hPa 0,0 l/m 0,00 h 0,00 h 0 W/m 21,6 km/h (4 Bft) 95,16 %
28.12.2015 18:00 9,1 C 9,0 C 7,2 C 78 % 0 lf 1022,9 hPa 0,0 l/m 0,00 h 0,00 h 0 W/m 17,9 km/h (3 Bft) 97,42 %
28.12.2015 19:00 8,7 C 8,9 C 7,2 C 79 % 0 lf 1022,7 hPa 0,0 l/m 0,00 h 0,00 h 0 W/m 22,1 km/h (4 Bft) 96,44 %
28.12.2015 20:00 8,9 C 9,1 C 7,3 C 77 % 0 lf 1022,5 hPa 0,0 l/m 0,00 h 0,00 h 0 W/m 24,5 km/h (4 Bft) 93,67 %
28.12.2015 21:00 8,7 C 8,8 C 7,2 C 78 % 0 lf 1022,3 hPa 0,0 l/m 0,00 h 0,00 h 0 W/m 21,3 km/h (4 Bft) 97,72 %
28.12.2015 22:00 8,3 C 8,3 C 6,7 C 79 % 0 lf 1022,1 hPa 0,0 l/m 0,00 h 0,00 h 0 W/m 21,4 km/h (4 Bft) 96,30 %
28.12.2015 23:00 7,9 C 7,9 C 6,3 C 80 % 0 lf 1022,0 hPa 0,0 l/m 0,00 h 0,00 h 0 W/m 19,8 km/h (3 Bft) 95,23 %
29.12.2015 00:00 7,6 C 7,5 C 5,8 C 80 % 0 lf 1021,8 hPa 0,0 l/m 0,00 h 0,00 h 0 W/m 18,2 km/h (3 Bft) 95,41 %
29.12.2015 01:00 7,2 C 7,2 C 5,6 C 80 % 0 lf 1021,6 hPa 0,0 l/m 0,00 h 0,00 h 0 W/m 16,2 km/h (3 Bft) 95,51 %
29.12.2015 02:00 6,9 C 6,9 C 5,3 C 81 % 0 lf 1021,6 hPa 0,0 l/m 0,00 h 0,00 h 0 W/m 18,3 km/h (3 Bft) 96,65 %
29.12.2015 03:00 6,4 C 6,2 C 4,6 C 83 % 0 lf 1021,6 hPa 0,0 l/m 0,00 h 0,00 h 12 W/m 16,7 km/h (3 Bft) 95,52 %
29.12.2015 04:00 5,9 C 5,8 C 4,4 C 83 % 0 lf 1021,1 hPa 0,0 l/m 0,00 h 0,00 h 14 W/m 19,5 km/h (3 Bft) 95,81 %
29.12.2015 05:00 5,8 C 6,1 C 4,4 C 83 % 0 lf 1021,0 hPa 0,0 l/m 0,00 h 0,00 h 14 W/m 21,0 km/h (4 Bft) 95,30 %
29.12.2015 06:00 5,8 C 6,1 C 4,4 C 83 % 0 lf 1021,4 hPa 0,0 l/m 0,00 h 0,00 h 14 W/m 19,6 km/h (3 Bft) 96,36 %
29.12.2015 07:00 5,6 C 5,7 C 4,2 C 83 % 0 lf 1021,5 hPa 0,0 l/m 0,00 h 0,00 h 14 W/m 18,9 km/h (3 Bft) 97,23 %
29.12.2015 08:00 5,3 C 5,3 C 3,9 C 85 % 0 lf 1022,1 hPa 0,0 l/m 0,10 h 0,00 h 22 W/m 14,9 km/h (3 Bft) 92,32 %
29.12.2015 09:00 5,2 C 5,8 C 4,2 C 87 % 0 lf 1022,6 hPa 0,0 l/m 1,00 h 0,00 h 69 W/m 16,2 km/h (3 Bft) 95,36 %
29.12.2015 10:00 6,0 C 7,1 C 5,3 C 86 % 0 lf 1023,2 hPa 0,0 l/m 1,00 h 0,00 h 131 W/m 18,5 km/h (3 Bft) 98,65 %
29.12.2015 11:00 7,3 C 10,3 C 6,5 C 84 % 0 lf 1023,6 hPa 0,0 l/m 1,00 h 0,00 h 183 W/m 14,5 km/h (3 Bft) 94,59 %
29.12.2015 12:00 8,6 C 11,3 C 7,7 C 83 % 0 lf 1024,1 hPa 0,0 l/m 0,97 h 0,00 h 198 W/m 13,1 km/h (3 Bft) 96,14 %
29.12.2015 13:00 9,4 C 10,9 C 8,5 C 82 % 0 lf 1024,4 hPa 0,0 l/m 0,67 h 0,00 h 160 W/m 12,9 km/h (3 Bft) 96,16 %
29.12.2015 14:00 10,1 C 12,4 C 8,5 C 82 % 0 lf 1024,9 hPa 0,0 l/m 0,43 h 0,00 h 114 W/m 11,2 km/h (2 Bft) 95,80 %
29.12.2015 15:00 9,8 C 10,0 C 7,9 C 83 % 0 lf 1025,5 hPa 0,0 l/m 0,00 h 0,00 h 27 W/m 7,0 km/h (2 Bft) 97,87 %
29.12.2015 16:00 9,8 C 10,0 C 8,2 C 85 % 0 lf 1026,2 hPa 0,0 l/m 0,00 h 0,03 h 7 W/m 6,9 km/h (2 Bft) 94,32 %
29.12.2015 17:00 9,6 C 9,5 C 7,7 C 86 % 0 lf 1026,8 hPa 0,0 l/m 0,00 h 0,00 h 5 W/m 5,7 km/h (1 Bft) 97,50 %
29.12.2015 18:00 9,3 C 9,4 C 7,6 C 87 % 0 lf 1027,1 hPa 0,0 l/m 0,00 h 0,00 h 5 W/m 7,9 km/h (2 Bft) 94,84 %
29.12.2015 19:00 9,2 C 9,5 C 7,9 C 88 % 0 lf 1027,6 hPa 0,0 l/m 0,00 h 0,00 h 5 W/m 7,8 km/h (2 Bft) 94,65 %
29.12.2015 20:00 9,2 C 9,2 C 7,8 C 88 % 0 lf 1028,0 hPa 0,0 l/m 0,00 h 0,00 h 5 W/m 9,0 km/h (2 Bft) 98,08 %
29.12.2015 21:00 9,0 C 8,9 C 7,4 C 88 % 0 lf 1028,3 hPa 0,0 l/m 0,00 h 0,00 h 7 W/m 8,1 km/h (2 Bft) 95,79 %
29.12.2015 22:00 8,2 C 7,7 C 5,7 C 88 % 0 lf 1028,3 hPa 0,0 l/m 0,00 h 0,00 h 16 W/m 7,9 km/h (2 Bft) 94,10 %
29.12.2015 23:00 7,3 C 7,0 C 5,3 C 90 % 0 lf 1028,7 hPa 0,0 l/m 0,00 h 0,00 h 5 W/m 8,5 km/h (2 Bft) 97,08 %
30.12.2015 00:00 6,5 C 5,9 C 4,0 C 91 % 0 lf 1028,9 hPa 0,0 l/m 0,00 h 0,00 h 0 W/m 6,9 km/h (2 Bft) 97,13 %
30.12.2015 01:00 5,8 C 5,7 C 4,0 C 92 % 0 lf 1028,7 hPa 0,0 l/m 0,00 h 0,00 h 0 W/m 9,2 km/h (2 Bft) 95,08 %
30.12.2015 02:00 5,3 C 5,2 C 3,9 C 93 % 0 lf 1028,4 hPa 0,0 l/m 0,00 h 0,00 h 0 W/m 10,6 km/h (2 Bft) 95,51 %
30.12.2015 03:00 4,9 C 5,0 C 3,3 C 93 % 0 lf 1028,1 hPa 0,0 l/m 0,00 h 0,00 h 0 W/m 11,7 km/h (2 Bft) 96,45 %
30.12.2015 04:00 4,7 C 4,7 C 3,3 C 94 % 0 lf 1027,6 hPa 0,0 l/m 0,00 h 0,00 h 0 W/m 12,6 km/h (3 Bft) 96,34 %
30.12.2015 05:00 4,7 C 4,7 C 3,3 C 95 % 1 lf 1027,4 hPa 0,0 l/m 0,00 h 0,00 h 0 W/m 14,5 km/h (3 Bft) 95,44 %
30.12.2015 06:00 4,7 C 4,9 C 3,3 C 95 % 1 lf 1027,2 hPa 0,0 l/m 0,00 h 0,00 h 0 W/m 18,7 km/h (3 Bft) 95,91 %
30.12.2015 07:00 4,6 C 4,5 C 3,3 C 96 % 1 lf 1027,0 hPa 0,0 l/m 0,00 h 0,00 h 0 W/m 18,6 km/h (3 Bft) 94,58 %
30.12.2015 08:00 4,6 C 4,9 C 3,3 C 96 % 0 lf 1026,6 hPa 0,0 l/m 0,10 h 0,00 h 19 W/m 23,6 km/h (4 Bft) 96,72 %
30.12.2015 09:00 4,4 C 4,8 C 3,4 C 96 % 0 lf 1026,6 hPa 0,0 l/m 0,53 h 0,00 h 49 W/m 23,8 km/h (4 Bft) 98,01 %
30.12.2015 10:00 5,0 C 6,1 C 4,3 C 96 % 0 lf 1026,1 hPa 0,0 l/m 0,80 h 0,00 h 119 W/m 31,1 km/h (5 Bft) 92,88 %
30.12.2015 11:00 6,4 C 10,2 C 5,6 C 95 % 0 lf 1025,5 hPa 0,0 l/m 1,00 h 0,00 h 209 W/m 25,2 km/h (4 Bft) 97,08 %
30.12.2015 12:00 7,9 C 10,6 C 7,0 C 89 % 0 lf 1024,3 hPa 0,0 l/m 0,97 h 0,00 h 242 W/m 30,2 km/h (5 Bft) 97,21 %
30.12.2015 13:00 8,7 C 11,2 C 7,6 C 87 % 0 lf 1023,4 hPa 0,0 l/m 1,00 h 0,00 h 200 W/m 22,2 km/h (4 Bft) 94,59 %
30.12.2015 14:00 8,8 C 10,3 C 7,2 C 86 % 0 lf 1022,7 hPa 0,0 l/m 1,00 h 0,00 h 134 W/m 25,0 km/h (4 Bft) 97,86 %
30.12.2015 15:00 8,3 C 8,5 C 6,9 C 86 % 0 lf 1021,8 hPa 0,0 l/m 1,00 h 0,00 h 69 W/m 30,4 km/h (5 Bft) 94,38 %
30.12.2015 16:00 7,8 C 7,9 C 6,3 C 86 % 0 lf 1021,1 hPa 0,0 l/m 0,37 h 0,00 h 21 W/m 33,1 km/h (5 Bft) 96,29 %
30.12.2015 17:00 7,2 C 7,2 C 5,7 C 87 % 0 lf 1020,6 hPa 0,0 l/m 0,00 h 0,00 h 11 W/m 26,6 km/h (4 Bft) 96,29 %
30.12.2015 18:00 6,7 C 6,9 C 5,5 C 88 % 0 lf 1019,9 hPa 0,0 l/m 0,00 h 0,00 h 0 W/m 31,6 km/h (5 Bft) 95,88 %
30.12.2015 19:00 6,7 C 6,7 C 5,6 C 88 % 0 lf 1019,5 hPa 0,0 l/m 0,00 h 0,00 h 0 W/m 34,3 km/h (5 Bft) 96,87 %
30.12.2015 20:00 6,4 C 6,7 C 5,2 C 87 % 0 lf 1018,2 hPa 0,0 l/m 0,00 h 0,00 h 0 W/m 39,1 km/h (6 Bft) 95,01 %
30.12.2015 21:00 6,0 C 6,2 C 4,6 C 87 % 0 lf 1017,3 hPa 0,0 l/m 0,00 h 0,00 h 0 W/m 39,7 km/h (6 Bft) 95,66 %
30.12.2015 22:00 5,8 C 6,1 C 4,4 C 88 % 0 lf 1016,7 hPa 0,0 l/m 0,00 h 0,00 h 0 W/m 36,9 km/h (5 Bft) 98,43 %
30.12.2015 23:00 5,6 C 5,9 C 4,4 C 87 % 0 lf 1015,9 hPa 0,0 l/m 0,00 h 0,00 h 0 W/m 34,5 km/h (5 Bft) 94,88 %
31.12.2015 00:00 5,3 C 5,6 C 4,1 C 87 % 0 lf 1015,3 hPa 0,0 l/m 0,00 h 0,00 h 0 W/m 36,1 km/h (5 Bft) 94,86 %
31.12.2015 01:00 5,3 C 5,6 C 4,2 C 86 % 0 lf 1014,5 hPa 0,0 l/m 0,00 h 0,00 h 0 W/m 34,7 km/h (5 Bft) 97,01 %
31.12.2015 02:00 5,4 C 5,6 C 4,4 C 87 % 0 lf 1014,2 hPa 0,0 l/m 0,00 h 0,00 h 0 W/m 36,5 km/h (5 Bft) 97,08 %
31.12.2015 03:00 5,7 C 6,0 C 4,4 C 86 % 0 lf 1013,9 hPa 0,0 l/m 0,00 h 0,03 h 0 W/m 34,3 km/h (5 Bft) 95,65 %
31.12.2015 04:00 5,8 C 6,1 C 4,4 C 86 % 0 lf 1013,9 hPa 0,0 l/m 0,00 h 0,00 h 0 W/m 30,7 km/h (5 Bft) 94,96 %
31.12.2015 05:00 6,1 C 6,4 C 5,1 C 86 % 0 lf 1014,2 hPa 0,0 l/m 0,00 h 0,00 h 0 W/m 25,0 km/h (4 Bft) 95,66 %
31.12.2015 06:00 6,4 C 5,8 C 4,6 C 88 % 3 lf 1015,1 hPa 1,6 l/m 0,00 h 0,83 h 0 W/m 13,9 km/h (3 Bft) 97,09 %
31.12.2015 07:00 6,1 C 5,8 C 4,5 C 93 % 14 lf 1016,0 hPa 0,8 l/m 0,00 h 0,90 h 0 W/m 10,6 km/h (2 Bft) 96,08 %
31.12.2015 08:00 6,6 C 6,6 C 5,3 C 95 % 12 lf 1017,0 hPa 0,2 l/m 0,00 h 0,40 h 4 W/m 10,1 km/h (2 Bft) 94,24 %
31.12.2015 09:00 7,6 C 7,7 C 6,1 C 96 % 1 lf 1017,9 hPa 0,0 l/m 0,00 h 0,00 h 20 W/m 20,3 km/h (4 Bft) 96,37 %
31.12.2015 10:00 8,1 C 8,3 C 6,5 C 96 % 0 lf 1018,6 hPa 0,0 l/m 0,00 h 0,00 h 81 W/m 21,6 km/h (4 Bft) 95,65 %
31.12.2015 11:00 8,8 C 11,6 C 6,8 C 91 % 0 lf 1019,2 hPa 0,0 l/m 0,70 h 0,00 h 167 W/m 24,0 km/h (4 Bft) 97,44 %
31.12.2015 12:00 9,9 C 13,0 C 7,1 C 83 % 0 lf 1019,6 hPa 0,0 l/m 0,63 h 0,00 h 192 W/m 27,2 km/h (4 Bft) 94,26 %
31.12.2015 13:00 10,4 C 14,6 C 7,6 C 79 % 0 lf 1020,0 hPa 0,0 l/m 1,00 h 0,00 h 198 W/m 30,1 km/h (5 Bft) 96,58 %
31.12.2015 14:00 10,5 C 13,1 C 8,7 C 76 % 0 lf 1020,4 hPa 0,0 l/m 1,00 h 0,00 h 160 W/m 23,9 km/h (4 Bft) 96,01 %
31.12.2015 15:00 9,9 C 10,1 C 8,0 C 76 % 0 lf 1021,1 hPa 0,0 l/m 1,00 h 0,00 h 84 W/m 20,3 km/h (4 Bft) 96,23 %
31.12.2015 16:00 9,1 C 8,8 C 6,8 C 76 % 0 lf 1021,7 hPa 0,0 l/m 0,37 h 0,00 h 34 W/m 13,5 km/h (3 Bft) 97,15 %
31.12.2015 17:00 8,1 C 7,4 C 5,1 C 79 % 0 lf 1022,0 hPa 0,0 l/m 0,00 h 0,00 h 14 W/m 9,5 km/h (2 Bft) 94,73 %
31.12.2015 18:00 7,1 C 6,8 C 4,5 C 83 % 0 lf 1022,2 hPa 0,0 l/m 0,00 h 0,00 h 6 W/m 9,5 km/h (2 Bft) 97,57 %
31.12.2015 19:00 6,4 C 6,5 C 4,6 C 85 % 0 lf 1022,4 hPa 0,0 l/m 0,00 h 0,00 h 8 W/m 10,6 km/h (2 Bft) 94,59 %
31.12.2015 20:00 6,3 C 6,4 C 4,4 C 85 % 0 lf 1022,5 hPa 0,0 l/m 0,00 h 0,00 h 8 W/m 10,8 km/h (2 Bft) 96,01 %
31.12.2015 21:00 6,0 C 6,0 C 4,0 C 85 % 0 lf 1022,4 hPa 0,0 l/m 0,00 h 0,00 h 9 W/m 10,7 km/h (2 Bft) 98,15 %
31.12.2015 22:00 5,3 C 4,9 C 2,9 C 86 % 0 lf 1022,4 hPa 0,0 l/m 0,00 h 0,00 h 4 W/m 7,9 km/h (2 Bft) 95,94 %
31.12.2015 23:00 4,2 C 4,0 C 2,3 C 88 % 0 lf 1022,5 hPa 0,0 l/m 0,00 h 0,00 h 0 W/m 9,0 km/h (2 Bft) 94,52 %
01.01.2016 00:00 3,8 C 3,7 C 2,2 C 90 % 0 lf 1022,5 hPa 0,0 l/m 0,00 h 0,00 h 0 W/m 8,8 km/h (2 Bft) 95,92 %
01.01.2016 01:00 3,3 C 3,2 C 1,8 C 91 % 0 lf 1022,5 hPa 0,0 l/m 0,00 h 0,00 h 0 W/m 10,3 km/h (2 Bft) 98,50 %
01.01.2016 02:00 3,2 C 3,4 C 2,0 C 92 % 0 lf 1022,5 hPa 0,0 l/m 0,00 h 0,00 h 0 W/m 9,4 km/h (2 Bft) 95,73 %
01.01.2016 03:00 3,4 C 3,9 C 2,6 C 93 % 0 lf 1023,1 hPa 0,0 l/m 0,00 h 0,13 h 0 W/m 8,8 km/h (2 Bft) 95,09 %
01.01.2016 04:00 4,1 C 4,1 C 2,9 C 93 % 0 lf 1023,3 hPa 0,2 l/m 0,00 h 0,13 h 0 W/m 9,0 km/h (2 Bft) 96,90 %
01.01.2016 05:00 4,3 C 4,0 C 2,3 C 94 % 1 lf 1023,4 hPa 0,0 l/m 0,00 h 0,00 h 0 W/m 5,8 km/h (2 Bft) 95,16 %
01.01.2016 06:00 3,8 C 3,2 C 1,4 C 94 % 4 lf 1023,8 hPa 0,0 l/m 0,00 h 0,00 h 0 W/m 5,3 km/h (1 Bft) 97,44 %
01.01.2016 07:00 3,2 C 2,9 C 1,2 C 94 % 13 lf 1024,1 hPa 0,0 l/m 0,00 h 0,00 h 0 W/m 6,0 km/h (2 Bft) 96,20 %
01.01.2016 08:00 2,9 C 2,3 C 0,9 C 95 % 15 lf 1024,7 hPa 0,0 l/m 0,00 h 0,00 h 9 W/m 3,6 km/h (1 Bft) 93,44 %
01.01.2016 09:00 2,7 C 3,0 C 1,7 C 95 % 15 lf 1024,9 hPa 0,0 l/m 0,97 h 0,00 h 48 W/m 6,3 km/h (2 Bft) 97,57 %
01.01.2016 10:00 3,6 C 5,1 C 3,2 C 96 % 15 lf 1025,0 hPa 0,0 l/m 0,87 h 0,00 h 112 W/m 6,7 km/h (2 Bft) 97,30 %
01.01.2016 11:00 4,7 C 6,3 C 4,5 C 97 % 5 lf 1024,9 hPa 0,0 l/m 0,20 h 0,00 h 115 W/m 5,8 km/h (2 Bft) 92,89 %
01.01.2016 12:00 6,2 C 9,5 C 6,1 C 98 % 0 lf 1024,7 hPa 0,0 l/m 0,80 h 0,00 h 199 W/m 6,5 km/h (2 Bft) 97,22 %
01.01.2016 13:00 7,1 C 9,3 C 6,6 C 97 % 0 lf 1024,1 hPa 0,0 l/m 0,63 h 0,00 h 143 W/m 7,5 km/h (2 Bft) 97,16 %
01.01.2016 14:00 7,6 C 9,5 C 6,2 C 94 % 0 lf 1023,6 hPa 0,0 l/m 1,00 h 0,00 h 132 W/m 8,1 km/h (2 Bft) 92,88 %
01.01.2016 15:00 7,3 C 7,5 C 5,6 C 92 % 0 lf 1022,9 hPa 0,0 l/m 0,97 h 0,00 h 72 W/m 9,3 km/h (2 Bft) 98,01 %
01.01.2016 16:00 6,6 C 6,3 C 4,9 C 92 % 0 lf 1022,2 hPa 0,0 l/m 0,13 h 0,00 h 11 W/m 10,8 km/h (2 Bft) 96,01 %
01.01.2016 17:00 6,1 C 6,1 C 4,4 C 93 % 0 lf 1021,5 hPa 0,0 l/m 0,00 h 0,00 h 3 W/m 19,4 km/h (3 Bft) 94,59 %
01.01.2016 18:00 5,7 C 6,0 C 4,4 C 94 % 0 lf 1021,1 hPa 0,0 l/m 0,00 h 0,00 h 4 W/m 17,2 km/h (3 Bft) 96,14 %
01.01.2016 19:00 5,7 C 6,0 C 4,4 C 94 % 0 lf 1019,8 hPa 0,0 l/m 0,00 h 0,00 h 0 W/m 20,1 km/h (4 Bft) 95,76 %
01.01.2016 20:00 5,9 C 6,3 C 4,8 C 94 % 0 lf 1018,6 hPa 0,0 l/m 0,00 h 0,00 h 0 W/m 24,3 km/h (4 Bft) 95,60 %
01.01.2016 21:00 6,3 C 6,7 C 5,3 C 91 % 0 lf 1018,5 hPa 0,0 l/m 0,00 h 0,00 h 0 W/m 25,3 km/h (4 Bft) 98,42 %
01.01.2016 22:00 6,6 C 6,7 C 5,4 C 87 % 0 lf 1018,2 hPa 0,0 l/m 0,00 h 0,00 h 0 W/m 25,7 km/h (4 Bft) 93,26 %
01.01.2016 23:00 6,0 C 6,0 C 4,5 C 87 % 0 lf 1017,0 hPa 0,0 l/m 0,00 h 0,00 h 0 W/m 30,6 km/h (5 Bft) 95,59 %
02.01.2016 00:00 5,7 C 6,0 C 4,4 C 88 % 0 lf 1015,8 hPa 0,0 l/m 0,00 h 0,00 h 0 W/m 28,5 km/h (4 Bft) 98,01 %
02.01.2016 01:00 5,8 C 6,0 C 4,4 C 86 % 0 lf 1014,7 hPa 0,0 l/m 0,00 h 0,00 h 0 W/m 28,8 km/h (5 Bft) 94,94 %
02.01.2016 02:00 5,6 C 5,7 C 4,3 C 86 % 0 lf 1013,5 hPa 0,0 l/m 0,00 h 0,00 h 0 W/m 30,4 km/h (5 Bft) 95,45 %
02.01.2016 03:00 5,3 C 5,6 C 3,9 C 86 % 0 lf 1012,7 hPa 0,0 l/m 0,00 h 0,00 h 3 W/m 29,3 km/h (5 Bft) 96,15 %
02.01.2016 04:00 5,0 C 5,0 C 3,9 C 87 % 0 lf 1012,2 hPa 0,0 l/m 0,00 h 0,00 h 19 W/m 30,1 km/h (5 Bft) 95,73 %
02.01.2016 05:00 4,7 C 4,9 C 3,3 C 87 % 0 lf 1011,4 hPa 0,0 l/m 0,00 h 0,00 h 16 W/m 28,5 km/h (4 Bft) 97,07 %
02.01.2016 06:00 4,6 C 5,0 C 3,3 C 87 % 0 lf 1010,9 hPa 0,0 l/m 0,00 h 0,00 h 15 W/m 30,3 km/h (5 Bft) 95,80 %
02.01.2016 07:00 4,6 C 4,7 C 3,2 C 87 % 1 lf 1010,6 hPa 0,0 l/m 0,00 h 0,40 h 13 W/m 27,7 km/h (4 Bft) 93,88 %
02.01.2016 08:00 4,4 C 3,8 C 2,8 C 90 % 9 lf 1010,4 hPa 1,0 l/m 0,00 h 1,00 h 8 W/m 26,6 km/h (4 Bft) 97,76 %
02.01.2016 09:00 4,0 C 3,7 C 2,8 C 93 % 15 lf 1010,2 hPa 0,4 l/m 0,00 h 1,00 h 25 W/m 30,6 km/h (5 Bft) 95,93 %
02.01.2016 10:00 3,9 C 3,9 C 2,8 C 95 % 10 lf 1010,2 hPa 0,4 l/m 0,00 h 1,00 h 49 W/m 28,5 km/h (4 Bft) 96,12 %
02.01.2016 11:00 4,1 C 4,0 C 3,0 C 95 % 1 lf 1009,8 hPa 0,0 l/m 0,00 h 1,00 h 84 W/m 28,5 km/h (4 Bft) 94,39 %
02.01.2016 12:00 4,3 C 4,2 C 3,1 C 95 % 0 lf 1009,4 hPa 0,0 l/m 0,00 h 1,00 h 65 W/m 28,9 km/h (5 Bft) 96,30 %
02.01.2016 13:00 4,2 C 4,0 C 3,0 C 95 % 5 lf 1009,1 hPa 0,0 l/m 0,00 h 0,90 h 65 W/m 25,4 km/h (4 Bft) 97,21 %
02.01.2016 14:00 4,4 C 4,7 C 3,4 C 96 % 2 lf 1009,0 hPa 0,0 l/m 0,50 h 0,60 h 115 W/m 25,0 km/h (4 Bft) 95,47 %
02.01.2016 15:00 4,7 C 4,8 C 3,3 C 95 % 0 lf 1009,1 hPa 0,0 l/m 1,00 h 0,23 h 99 W/m 25,9 km/h (4 Bft) 95,55 %
02.01.2016 16:00 4,4 C 4,3 C 2,8 C 94 % 0 lf 1009,2 hPa 0,0 l/m 0,40 h 0,03 h 35 W/m 22,2 km/h (4 Bft) 94,89 %
02.01.2016 17:00 4,4 C 4,7 C 3,2 C 94 % 0 lf 1009,4 hPa 0,0 l/m 0,00 h 0,00 h 4 W/m 23,1 km/h (4 Bft) 96,36 %
02.01.2016 18:00 4,4 C 4,4 C 3,3 C 94 % 0 lf 1009,3 hPa 0,0 l/m 0,00 h 0,03 h 3 W/m 28,5 km/h (4 Bft) 97,43 %
02.01.2016 19:00 4,5 C 5,0 C 3,3 C 93 % 0 lf 1009,2 hPa 0,0 l/m 0,00 h 0,00 h 3 W/m 26,5 km/h (4 Bft) 95,32 %
02.01.2016 20:00 4,6 C 5,0 C 3,3 C 93 % 0 lf 1009,1 hPa 0,0 l/m 0,00 h 0,00 h 3 W/m 25,2 km/h (4 Bft) 94,44 %
02.01.2016 21:00 4,7 C 5,0 C 3,7 C 93 % 0 lf 1008,9 hPa 0,0 l/m 0,00 h 0,00 h 5 W/m 23,6 km/h (4 Bft) 98,37 %
02.01.2016 22:00 4,8 C 5,0 C 3,9 C 93 % 0 lf 1008,7 hPa 0,0 l/m 0,00 h 0,00 h 2 W/m 23,9 km/h (4 Bft) 95,96 %
02.01.2016 23:00 4,9 C 5,1 C 3,9 C 93 % 0 lf 1008,4 hPa 0,0 l/m 0,00 h 0,00 h 2 W/m 23,0 km/h (4 Bft) 94,84 %
03.01.2016 00:00 5,1 C 5,1 C 3,9 C 93 % 0 lf 1008,2 hPa 0,0 l/m 0,00 h 0,07 h 3 W/m 24,7 km/h (4 Bft) 96,73 %
03.01.2016 01:00 5,0 C 5,0 C 3,9 C 94 % 0 lf 1008,0 hPa 0,0 l/m 0,00 h 0,00 h 3 W/m 23,9 km/h (4 Bft) 94,83 %
03.01.2016 02:00 5,1 C 5,3 C 3,8 C 94 % 2 lf 1007,6 hPa 0,0 l/m 0,00 h 0,18 h 6 W/m 20,8 km/h (4 Bft) 97,52 %
03.01.2016 03:00 5,0 C 4,4 C 3,3 C 95 % 14 lf 1007,5 hPa 0,6 l/m 0,00 h 1,00 h 24 W/m 17,6 km/h (3 Bft) 97,90 %
03.01.2016 04:00 4,8 C 4,4 C 3,3 C 96 % 15 lf 1007,2 hPa 0,8 l/m 0,00 h 0,97 h 23 W/m 19,3 km/h (3 Bft) 95,80 %
03.01.2016 05:00 4,8 C 4,8 C 3,5 C 97 % 15 lf 1006,6 hPa 1,0 l/m 0,00 h 0,97 h 15 W/m 19,2 km/h (3 Bft) 96,97 %
03.01.2016 06:00 5,0 C 5,0 C 3,9 C 97 % 15 lf 1006,4 hPa 1,0 l/m 0,00 h 0,70 h 5 W/m 18,4 km/h (3 Bft) 97,37 %
03.01.2016 07:00 5,2 C 5,3 C 3,9 C 98 % 15 lf 1006,1 hPa 0,4 l/m 0,00 h 0,27 h 4 W/m 11,0 km/h (2 Bft) 77,04 %
03.01.2016 08:00 5,5 C 5,6 C 4,4 C 98 % 15 lf 1005,8 hPa 0,0 l/m 0,00 h 0,17 h 7 W/m 9,8 km/h (2 Bft) 95,27 %
03.01.2016 09:00 5,7 C 6,0 C 4,7 C 98 % 15 lf 1005,5 hPa 0,0 l/m 0,30 h 0,07 h 43 W/m 8,5 km/h (2 Bft) 96,29 %
03.01.2016 10:00 6,3 C 6,9 C 5,6 C 98 % 15 lf 1005,2 hPa 0,0 l/m 0,60 h 0,00 h 103 W/m 11,7 km/h (2 Bft) 95,25 %
03.01.2016 11:00 6,9 C 8,0 C 6,1 C 98 % 3 lf 1004,8 hPa 0,0 l/m 0,70 h 0,07 h 129 W/m 15,8 km/h (3 Bft) 97,69 %
03.01.2016 12:00 7,3 C 9,5 C 5,9 C 96 % 0 lf 1003,7 hPa 0,0 l/m 0,93 h 0,00 h 185 W/m 19,6 km/h (3 Bft) 92,88 %
03.01.2016 13:00 8,2 C 9,7 C 5,8 C 85 % 0 lf 1002,7 hPa 0,0 l/m 0,70 h 0,00 h 161 W/m 22,7 km/h (4 Bft) 96,91 %
03.01.2016 14:00 7,9 C 7,9 C 5,7 C 84 % 0 lf 1001,7 hPa 0,0 l/m 0,00 h 0,00 h 39 W/m 13,7 km/h (3 Bft) 96,74 %
03.01.2016 15:00 7,5 C 7,8 C 6,1 C 84 % 0 lf 1000,7 hPa 0,0 l/m 0,03 h 0,03 h 30 W/m 17,8 km/h (3 Bft) 97,22 %
03.01.2016 16:00 6,9 C 6,8 C 5,2 C 83 % 0 lf 999,7 hPa 0,2 l/m 0,00 h 0,00 h 18 W/m 16,5 km/h (3 Bft) 94,45 %
03.01.2016 17:00 6,2 C 6,2 C 4,8 C 85 % 0 lf 998,8 hPa 0,0 l/m 0,00 h 0,00 h 0 W/m 19,2 km/h (3 Bft) 97,36 %
03.01.2016 18:00 6,2 C 6,4 C 5,0 C 85 % 0 lf 997,3 hPa 0,0 l/m 0,00 h 0,00 h 0 W/m 24,4 km/h (4 Bft) 96,51 %
03.01.2016 19:00 6,2 C 6,2 C 5,0 C 85 % 0 lf 995,9 hPa 0,0 l/m 0,00 h 0,10 h 0 W/m 27,9 km/h (4 Bft) 96,36 %
03.01.2016 20:00 6,0 C 5,5 C 4,2 C 87 % 1 lf 994,5 hPa 0,0 l/m 0,00 h 0,97 h 0 W/m 30,1 km/h (5 Bft) 94,43 %
03.01.2016 21:00 5,6 C 4,7 C 3,5 C 90 % 4 lf 993,2 hPa 0,4 l/m 0,00 h 1,00 h 0 W/m 28,9 km/h (5 Bft) 97,08 %
03.01.2016 22:00 5,2 C 4,4 C 3,3 C 93 % 11 lf 992,1 hPa 1,6 l/m 0,00 h 1,00 h 0 W/m 31,6 km/h (5 Bft) 96,73 %
03.01.2016 23:00 4,9 C 4,4 C 3,3 C 94 % 15 lf 991,0 hPa 1,2 l/m 0,00 h 1,00 h 0 W/m 32,4 km/h (5 Bft) 95,73 %
Min-Datum _ 01.01.16 01.01.16 01.01.16 28.12.15 28.12.15 03.01.16 - - - - 01.01.16 03.01.16
_ Min-Zeit 09:02 07:02 08:14 14:20 00:00 23:54 - - - - 08:06 07:54
Minimum _ 2,6 C 2,2 C 0,6 C 74 % 0 lf 990,3 hPa - - - - 0,0 km/h (0 Bft) 0,00 %
Max-Datum _ 28.12.15 28.12.15 28.12.15 03.01.16 31.12.15 30.12.15 31.12.15 28.12.15 29.12.15 01.01.16 31.12.15 28.12.15
_ Max-Zeit 14:14 11:58 13:28 10:58 07:10 00:22 06:16 09:14 16:58 12:42 00:16 00:06
Maximum _ 12,2 C 16,1 C 10,6 C 99 % 15 lf 1029,1 hPa 1,6 l/m 0,03 h 0,03 h 306 W/m 56,5 km/h
S-SO (7 Bft)
100,00 %
Durchschnitt _ 6,4 C 6,8 C 4,9 C 89 % 2 lf 1018,1 hPa #11,8 l/m #33:54 h #18:15 h 61 W/m 19,2 km/h (3 Bft) 95,88 %
© 2016 W. Hausmann